Location: Battery Park City
(40.7115°N, 74.0163°W)
Time: 22:55:37
(UTC+00:00)

Cosmos 921 Rocket - Pass Details

Date: 08 December 2019
Orbit: 572 x 632 km, 75.8° (Epoch: 17 January)

Event Time Altitude Azimuth Distance (km) Brightness Sun altitude
Rises 22:35:34 0° 358° (N) 2,814 6.3 -12.4°
Reaches altitude 10° 22:38:20 10° 17° (NNE) 1,919 5.2 -12.9°
Enters shadow 22:40:26 18° 45° (NE) 1,489 4.5 -13.2°
